Regional Weather Roundup
Issued by NWS

Home | Current Version | Previous Version | Graphics & Text | Print | Product List | Glossary On
Versions: 1 2 3 4 5 6 7 8 9 10 11 12 13 14 15 16 17 18 19 20 21 22 23 24 25 26 27 28 29 30 31 32 33 34 35 36 37 38 39 40 41 42 43 44 45 46 47 48 49 50
000
ASUS45 KBOU 180407
RWRCO

WEATHER ROUNDUP FOR COLORADO
NATIONAL WEATHER SERVICE DENVER/BOULDER CO
1000 PM MDT WED SEP 17 2014

NOTE: "FAIR" INDICATES FEW OR NO CLOUDS BELOW 12000 FEET WITH NO
SIGNIFICANT WEATHER AND/OR OBSTRUCTIONS TO VISIBILITY.

COZ001>005-013-030-031-180500-
...NORTHWEST COLORADO...

CITY           SKY/WX    TMP DP  RH WIND       PRES   REMARKS
CRAIG          CLEAR     54  42  64 CALM      30.13R
HAYDEN         CLEAR     59  34  38 S6        30.15R
MEEKER         CLEAR     60  40  47 E9        30.14R
MOUNT WERNER   NOT AVBL
STEAMBOAT SPGS CLEAR     60  40  47 CALM      30.18R
WALDEN         CLEAR     43  34  70 SE9       30.28S
$$

COZ006>008-011-180500-
...WEST CENTRAL VALLEYS...

CITY           SKY/WX    TMP DP  RH WIND       PRES   REMARKS
GRAND JUNCTION CLEAR     70  39  32 E3        29.98R
MONTROSE       CLEAR     67  43  41 SE9       30.10R
EAGLE          CLEAR     61  37  41 CALM      30.18R
RIFLE          CLEAR     61  42  49 CALM      30.06R
DELTA          CLEAR     73  41  30 E3        30.04R
NUCLA          CLEAR     61  46  59 E9        30.17S
$$

COZ017>023-064>068-180500-
...SOUTHWEST COLORADO...

CITY           SKY/WX    TMP DP  RH WIND       PRES   REMARKS
DURANGO        PTCLDY    55  52  89 N10       30.21S
CORTEZ         PTCLDY    54  52  93 E3        30.16R
PAGOSA SPRINGS PTCLDY    55  46  72 CALM      30.28S
TELLURIDE      NOT AVBL
WOLF CREEK PAS MOCLDY    45  32  61 CALM      30.54S
$$

COZ009-010-012-014-032>034-037-058>063-180500-
...CENTRAL COLORADO...

CITY           SKY/WX    TMP DP  RH WIND       PRES   REMARKS
ASPEN          CLEAR     57  36  45 SW10      30.24R
BUENA VISTA    PTCLDY    55  38  51 W7        30.28R
COPPER MTN     CLEAR     54  28  37 S15       30.56S
BERTHOUD PASS  FAIR      41  37  87 MISG      30.61S
COTTONWOOD PAS PTCLDY    61  30  31 CALM      30.42R
GUNNISON       MOCLDY    64  36  34 N8        30.25R
KREMMLING      CLEAR     52  36  54 SE3       30.24S
LEADVILLE      CLEAR     48  30  49 NE3       30.41R
MONARCH PASS   MOCLDY    48  32  53 E12       30.65S
SALIDA         NOT AVBL
SUNLIGHT       CLEAR     57  34  41 NE5       30.48S
WILKERSON PASS NOT AVBL
$$

COZ069>075-180500-
...SAN LUIS VALLEY/SANGRE DE CRISTO MOUNTAINS...

CITY           SKY/WX    TMP DP  RH WIND       PRES   REMARKS
ALAMOSA        MOCLDY    54  42  64 CALM      30.23R
LA VETA PASS   NOT AVBL
SAGUACHE       MOCLDY    59  36  41 NW8       30.26S
$$

COZ035-036-038>040-180500-
...NORTHERN COLORADO FRONT RANGE...

CITY           SKY/WX    TMP DP  RH WIND       PRES   REMARKS
DENVER INTL AP PTCLDY    66  42  41 SW8G17    30.09S
DMNS CITY PARK   N/A     65  48  54 S1        30.08S
AURORA         MOCLDY    69  42  36 CALM      30.12R
FRONT RANGE AP CLEAR     64  45  48 CALM      30.11R
ERIE MUNI ARPT CLEAR     62  44  51 S5        30.07S
BOULDER MUN AP CLEAR     70  37  30 SW9       30.08S
CENTENNIAL     PTCLDY    66  43  43 CALM      30.12S
BROOMFIELD     MOCLDY    63  41  45 W8        30.11F
FORT COLLINS   CLEAR     66  46  48 S3        30.06R
LONGMONT       CLEAR     62  46  56 CALM      30.08S
$$

COZ041-046-047-076>085-087-088-180500-
...PIKES PEAK/PALMER DIVIDE AND SOUTHERN FOOTHILLS...

CITY           SKY/WX    TMP DP  RH WIND       PRES   REMARKS
COLO. SPRINGS  MOCLDY    70  41  34 N12       30.15R
A. F. ACADEMY  MOCLDY    63  42  46 N7        30.18R
ELLICOTT       NOT AVBL
FALCON         MOCLDY    65  38  37 N9        30.20R
FORT CARSON    MOCLDY    67  42  41 NW15      30.11R
LIMON          CLEAR     58  42  55 CALM      30.08R
MONUMENT HILL  MOCLDY    59  41  51 NW3       30.20S
TRINIDAD       PTCLDY    65  47  52 W14       30.10R
$$

COZ042>045-048>051-090-091-180500-
...NORTHEAST COLORADO...

CITY           SKY/WX    TMP DP  RH WIND       PRES   REMARKS
GREELEY ARPT   CLEAR     61  43  51 NW3       30.04R
AKRON          PTCLDY    70  41  34 E5        30.02R
BURLINGTON     PTCLDY    67  48  50 S8        29.99R
WRAY           PTCLDY    67  59  74 E7        29.96R
STERLING       PTCLDY    63  52  67 CALM      29.97R
HOLYOKE        PTCLDY    68  59  73 E9        29.97R
FORT MORGAN    PTCLDY    63  45  52 NE7       30.02S
$$

COZ086-089-092>099-180500-
...SOUTHEAST COLORADO...

CITY           SKY/WX    TMP DP  RH WIND       PRES   REMARKS
PUEBLO         PTCLDY    72  35  25 E6        30.00R
LA JUNTA       PTCLDY    72  42  34 S9        29.97R
LAMAR          PTCLDY    68  55  63 S8        29.93R
SPRINGFIELD      N/A     60  56  86 SW7       30.01R
$$



USA.gov is the U.S. government's official web portal to all federal, state and local government web resources and services.